Regional Weather Roundup
Issued by NWS Sterling, VA

Home | Current Version | Previous Version | Graphics & Text | Print | Product List | Glossary On
Versions: 1 2 3 4 5 6 7 8 9 10 11 12 13 14 15 16 17 18 19 20 21 22 23 24 25 26 27 28 29 30 31 32 33 34 35 36 37 38 39 40 41 42 43 44 45 46 47 48 49 50
000
ASUS41 KLWX 310410
RWRLWX

REGIONAL WEATHER ROUNDUP
NATIONAL WEATHER SERVICE BALTIMORE MD/WASHINGTON DC
1200 AM EDT SUN AUG 31 2014

Note: "FAIR" indicates few or no clouds below 12,000 feet
with no significant weather and/or obstructions to visibility.
 TC=TEMPERATURE CELSIUS

 * =Non NWS site. Station does not report precipitation (e.g. rain,
    snow, etc.), thunder, or fog.

DCZ001-MDZ009-015-VAZ040>042-051-053>054-310500-
WASHINGTON METRO

CITY           SKY/WX    TMP DP  RH WIND       PRES   REMARKS
WASHINGTON NAT PTCLDY    78  71  79 S6        30.14S
DULLES         MOCLDY    74  71  91 S5        30.13S
ANDREWS AFB    PTCLDY    73  72  98 S8        30.14S
QUANTICO       PTCLDY    77  72  84 S10       30.14S
COLLEGE PARK*  PTCLDY    73  72  94 CALM      30.14S
LEESBURG*      MOCLDY    77  73  88 CALM      30.14S
MANASSAS*      MOCLDY    73  73 100 S5        30.13S
GAITHERSBURG*  MOCLDY    73  70  88 SE7       30.18S

$$

MDZ006>007-011-014-310500-
BALTIMORE METRO

CITY           SKY/WX    TMP DP  RH WIND       PRES   REMARKS
BWI AIRPORT    MOCLDY    75  71  87 VRB3      30.14S
MD SCIENCE CTR   N/A     78  71  79 MISG      30.14S
MARTIN STATE   CLOUDY    77  72  83 SE8       30.15F
ANNAPOLIS      CLOUDY    77  71  82 SE7       30.14S
FORT MEADE*    PTCLDY    70  68  94 CALM      30.16S

$$

MDZ012-015-019>023-310500-
MARYLAND EASTERN SHORE

CITY           SKY/WX    TMP DP  RH WIND       PRES   REMARKS
OCEAN CITY     MOCLDY    76  71  85 CALM      30.17S
SALISBURY      MOCLDY    74  68  81 CALM      30.16F
BAY BRIDGE AP*   N/A     75  70  83 S8        30.14S
CAMBRIDGE*     PTCLDY    72  68  88 SE5       30.15S
EASTON*        PTCLDY    74  71  87 CALM      30.19S

$$

MDZ017>025-310500-
SOUTHERN MARYLAND

CITY           SKY/WX    TMP DP  RH WIND       PRES   REMARKS
PATUXENT RIVER PTCLDY    75  72  90 S3        30.15R
ST INIGOES     PTCLDY    77  71  82 S8        30.14S
LEONARDTOWN*   PTCLDY    73  70  88 S3        30.17S

$$

MDZ003>005-310500-
NORTH CENTRAL MARYLAND

CITY           SKY/WX    TMP DP  RH WIND       PRES   REMARKS
FREDERICK*     CLOUDY    73  73 100 CALM      30.16R
HAGERSTOWN APT PTCLDY    76  70  82 S6        30.12F
WESTMINSTER*   MOCLDY    73  70  88 SE9       30.15S

$$

MDZ501>502-310500-
WESTERN MARYLAND

CITY           SKY/WX    TMP DP  RH WIND       PRES   REMARKS
OAKLAND*         N/A     64 N/A N/A S8        30.20F
CUMBERLAND*    CLOUDY    70  68  94 CALM      30.15S VSB<1/4

$$

VAZ025>031-310500-
SHENANDOAH VALLEY

CITY           SKY/WX    TMP DP  RH WIND       PRES   REMARKS
WINCHESTER*    MOCLDY    73  70  88 SE3       30.12F
STAUNTON*      CLEAR     73  67  82 SW3       30.19S

$$

WVZ021-048>050-054>055-310500-
EASTERN WEST VIRGINIA PANHANDLE

CITY           SKY/WX    TMP DP  RH WIND       PRES   REMARKS
MARTINSBURG    MOCLDY    72  68  87 CALM      30.13S FOG
PETERSBURG*    NOT AVBL

$$

VAZ036>039-050-310500-
CENTRAL FOOTHILLS

CITY           SKY/WX    TMP DP  RH WIND       PRES   REMARKS
CHARLOTTESVILL MOCLDY    74  72  93 SW3       30.14S
ORANGE*        PTCLDY    72  70  94 CALM      30.16R FOG

$$

VAZ055>057-310500-
NORTH AND CENTRAL PIEDMONT

CITY           SKY/WX    TMP DP  RH WIND       PRES   REMARKS
FREDERICKSBRG* PTCLDY    77  75  95 S8        30.13S
STAFFORD*      PTCLDY    74  74 100 S3        30.18S

$$

NCZ024-NYZ072-PAZ021-071-VAZ022-071-310500-
OTHER REGIONAL OBSERVATIONS

CITY           SKY/WX    TMP DP  RH WIND       PRES   REMARKS
NEW YORK CITY  CLOUDY    74  64  71 CALM      30.19S
PHILADELPHIA   MOCLDY    73  64  73 S7        30.17S
PITTSBURGH     CLOUDY    76  67  73 S6        30.05F
ROANOKE        PTCLDY    74  69  85 CALM      30.19S
RICHMOND       PTCLDY    77  73  87 S6        30.15R
RALEIGH        MOCLDY    77  71  82 S7        30.18R

$$

ANZ530>537-310500-
MARINE OBSERVATIONS

STATION/POSITION TIME  TEMP    WIND        PRES
                       AIR SEA DIR/SP/G
                 (UTC) (F)     (DEG/KT/KT) (MB)
THOMAS PT LIGHT  0400   76 78  160/ 13/ 14 1021.4S
BALT KEY BRIDGE  0400          140/ 10/ 12 1020.2S
COVE POINT       0400   77     190/ 12/ 14 1020.7S
LEWISETTA        0400   76 79  190/  7/  9 1020.5R
SOLOMONS ISLAND  0400      79                N/A
PINEY POINT      0400          190/ 11/ 13   N/A

$$




USA.gov is the U.S. government's official web portal to all federal, state and local government web resources and services.